Voltar ao catálogo

VANGUARD 1

AtivoCiênciaUNKNOWN
NORAD 5·PAYLOAD·🇺🇸 United States

Lançado Mar 17, 1958 de Cape Canaveral Space Force Station

Loading…

Próximas Passagens (próximas 24 horas)

TLE

AtualizadoSource: Space-Track

Época: Sep 12, 2026, 18:00 UTC

1 00005U 58002B   26255.75065760  .00000345  00000-0  43458-3 0  9995
2 00005  34.2473  44.0675 1837437 173.3792 189.5059 10.86050373452800

Acompanhe VANGUARD 1 em tempo real com AllMySat

Download on the App Store